sat.trackr.live / text

‹ back to catalog

STARLINK-36900

NORAD 67973 · 2026-038N

PAYLOAD ACTIVE UNKNOWN

§ Identity

Operator
Country
US
Launch date
2026-02-25
Launch site
AFWTR
Launch vehicle
Mass (kg)
RCS (m²)

Purposes: comms

External: N2YO · Heavens-Above · Gunter

§ Orbital elements

Epoch: 2026-09-19T01:25:27.042528Z

Period
93.91 min
Inclination
97.2849°
Eccentricity
0.0001673
Mean motion
15.33448530 rev/d
Perigee alt
464.4 km
Apogee alt
466.7 km
Semi-major
6,843.7 km
B*
4.5001e-4
RAAN
270.4354°
Arg perigee
97.5310°
Mean anomaly
262.6123°
Rev number
3,287

§ Raw data

STARLINK-369001 67973U 26038N   26262.05934077  .00014483  00000+0  45001-3 0  99962 67973  97.2849 270.4354 0001673  97.5310 262.6123 15.33448530 32878

JSON: /api/v1/satellites/67973 · /tle

For live sub-satellite position, see the globe view (requires WebGL).

§ Visibility from observer

Set your observer location to see the next 7 days of passes ≥ 10°. The values pass through the URL so the page stays shareable.

No JS? Fill the form by hand. The geolocation button needs JavaScript.